Temp
25 25 24 23 22 22 21 21 20 20 19 19 18 18 18 17 17 17 17 17 16 16 16 16 16 16 16 17 17 17 17 17 16 16 17 17 17 17 17 17 18 17 18
26 25 24 23 22 22 21 21 20 19 19 18 18 18 17 17 17 17 17 16 16 16 15 15 16 15 16 16 16 17 17 17 16 16 17 17 17 17 17 17 17 17 17
26 25 24 23 22 22 21 20 20 19 19 18 18 17 17 17 17 16 16 16 15 15 15 15 15 15 15 15 16 16 16 17 17 16 17 16 16 17 17 17 17 17 17
25 25 24 23 22 22 21 20 20 19 19 18 18 17 17 16 16 16 15 15 15 15 15 15 14 14 14 14 15 15 16 16 17 17 16 16 16 16 17 17 17 17 17
25 24 24 23 22 21 21 20 20 19 19 18 17 17 16 16 15 15 14 14 14 14 14 14 13 13 12 12 13 14 15 15 16 17 15 16 15 16 16 17 17 16 16
25 24 24 23 22 22 21 20 20 19 19 18 17 17 16 16 15 14 14 14 13 13 13 13 13 13 13 13 13 13 14 14 15 14 15 15 15 16 16 17 16 16 16
23 24 24 23 22 22 21 20 20 19 18 18 17 17 16 16 15 14 14 14 13 13 13 13 13 13 13 13 13 13 13 14 14 14 15 14 15 15 17 16 16 16 16
23 23 23 23 22 22 21 20 20 19 18 17 17 16 16 16 14 14 14 14 13 13 13 13 13 13 13 13 13 13 13 13 13 13 14 14 14 15 17 16 16 16 16
22 23 24 23 22 21 21 20 19 18 18 17 17 16 16 15 14 14 14 13 13 13 13 13 13 13 13 13 13 13 13 13 12 14 15 14 14 16 16 16 15 16 16
22 21 22 23 22 21 20 20 19 18 17 17 16 16 15 14 14 14 14 13 13 13 13 13 13 12 12 13 13 13 13 13 12 13 15 14 14 15 15 16 15 16 16
23 21 21 20 19 20 19 19 19 18 17 16 16 15 15 13 14 13 12 13 13 13 12 13 13 12 12 12 12 13 13 12 13 14 15 14 13 14 15 15 15 15 15
23 22 21 20 19 18 18 17 18 18 17 15 14 14 13 13 13 13 13 12 12 13 13 13 13 13 12 12 13 13 12 13 14 15 14 14 13 14 15 15 15 15 15
25 23 21 20 21 19 18 17 16 16 16 15 14 14 13 13 13 13 13 12 12 12 11 12 12 12 12 12 12 12 13 13 14 15 14 13 13 14 14 15 15 15 15
25 24 22 19 21 21 18 17 17 17 16 15 14 15 16 13 13 12 13 12 12 12 11 11 12 11 11 12 12 12 12 13 15 14 14 13 13 13 14 15 15 14 15
25 24 22 19 20 21 21 17 17 16 16 15 14 14 15 13 13 12 12 12 11 11 11 11 12 11 11 11 12 12 12 13 14 13 13 12 13 14 14 14 14 14 15
25 23 21 19 19 21 22 19 19 19 16 17 15 14 14 14 12 12 12 12 11 11 11 11 11 11 12 12 12 12 12 13 13 12 12 13 14 14 14 14 14 15 15
23 23 21 20 19 21 21 21 19 18 17 15 15 15 14 14 12 12 12 11 11 11 11 10 10 11 11 12 11 12 12 12 11 11 12 12 13 14 14 14 14 15 15
22 23 22 20 18 20 20 20 19 17 17 15 14 13 14 14 12 12 12 12 12 11 11 10 10 11 12 12 11 11 11 11 11 12 12 12 13 14 14 14 14 15 15
21 22 22 20 16 19 20 19 18 18 16 14 14 13 13 12 12 12 12 12 11 11 11 10 11 11 12 11 11 11 11 11 11 12 13 12 12 13 14 14 14 15 15
23 23 21 18 16 18 17 17 16 15 14 14 14 13 13 12 12 12 12 11 11 11 10 10 11 10 11 10 10 10 11 12 12 13 13 12 12 12 13 13 14 15 14
22 21 18 15 15 15 15 16 15 15 15 14 14 13 12 12 12 12 12 12 11 11 11 10 10 10 10 10 11 10 11 11 12 13 13 13 13 13 13 13 15 15 14
20 18 16 14 15 16 16 15 16 15 15 15 14 13 12 12 12 12 12 11 11 11 10 10 11 10 10 11 11 12 11 11 11 12 12 12 12 12 13 13 13 14 14
17 16 15 14 17 17 15 14 15 14 14 14 14 13 12 12 12 12 12 11 11 10 11 11 11 10 10 11 12 12 13 16 13 12 12 12 12 12 13 13 13 14 14
15 15 15 16 17 17 16 14 14 15 16 15 13 13 12 11 11 12 12 11 10 11 11 11 10 10 11 11 11 12 13 15 15 12 13 13 13 13 13 14 14 14 14
15 15 14 16 16 16 16 14 14 14 14 13 13 12 12 11 12 11 11 11 10 11 11 10 11 10 11 12 12 12 12 14 14 13 12 12 12 12 13 13 13 13 13
16 15 14 15 14 15 15 13 13 13 13 13 13 13 12 12 12 11 11 11 11 11 10 10 11 10 11 12 11 11 12 13 14 14 13 12 12 12 12 12 12 12 12
Height
1515 1516 1517 1519 1521 1523 1525 1525 1526 1528 1529 1530 1529 1528 1528 1529 1529 1529 1529 1529 1528 1528 1528 1527 1528 1528 1528 1529 1529 1531 1531 1533 1535 1535 1535 1536 1538 1539 1541 1542 1543 1545 1545
1513 1514 1516 1518 1520 1521 1523 1524 1525 1526 1527 1528 1528 1527 1527 1527 1527 1528 1527 1527 1527 1527 1527 1527 1526 1527 1528 1528 1528 1528 1529 1530 1533 1534 1534 1535 1536 1538 1539 1541 1542 1545 1546
1512 1513 1514 1516 1518 1520 1521 1523 1523 1524 1525 1525 1526 1526 1526 1525 1525 1525 1525 1526 1526 1526 1525 1525 1526 1526 1526 1526 1526 1526 1526 1528 1530 1532 1533 1535 1535 1536 1537 1539 1541 1543 1543
1510 1512 1512 1514 1516 1518 1520 1521 1522 1523 1524 1524 1525 1525 1525 1524 1524 1523 1523 1524 1525 1525 1524 1524 1524 1524 1524 1524 1524 1525 1525 1526 1528 1529 1532 1535 1534 1533 1534 1537 1540 1541 1543
1508 1509 1511 1513 1515 1518 1519 1521 1522 1523 1524 1523 1523 1523 1523 1523 1522 1521 1522 1521 1522 1522 1522 1522 1523 1523 1523 1522 1522 1523 1523 1525 1525 1527 1530 1533 1533 1533 1532 1534 1537 1539 1540
1506 1507 1509 1510 1513 1515 1517 1518 1520 1520 1521 1521 1521 1521 1520 1520 1520 1520 1520 1519 1520 1520 1520 1520 1521 1521 1521 1521 1520 1521 1521 1523 1523 1527 1528 1530 1528 1530 1529 1532 1534 1536 1539
1506 1506 1507 1508 1510 1513 1515 1516 1517 1519 1520 1520 1520 1519 1518 1518 1517 1517 1517 1518 1517 1517 1517 1518 1518 1518 1519 1520 1519 1520 1520 1520 1523 1526 1526 1527 1527 1526 1527 1529 1532 1534 1537
1506 1505 1506 1506 1508 1509 1512 1513 1515 1516 1517 1517 1518 1517 1517 1516 1515 1515 1515 1515 1515 1514 1514 1514 1515 1515 1516 1517 1517 1517 1516 1517 1521 1523 1524 1525 1523 1523 1525 1526 1529 1531 1534
1504 1503 1504 1504 1505 1507 1509 1511 1513 1514 1515 1515 1515 1514 1514 1514 1513 1513 1512 1511 1511 1510 1510 1510 1510 1511 1512 1513 1513 1514 1514 1515 1518 1522 1522 1522 1519 1521 1522 1524 1527 1528 1531
1500 1500 1500 1501 1502 1504 1505 1507 1510 1512 1513 1513 1513 1512 1511 1511 1510 1509 1509 1508 1507 1507 1506 1506 1506 1507 1508 1508 1508 1510 1511 1513 1515 1517 1519 1518 1516 1518 1519 1521 1525 1526 1529
1498 1497 1498 1499 1501 1500 1501 1503 1506 1508 1510 1510 1510 1509 1509 1509 1510 1508 1507 1505 1504 1502 1501 1501 1501 1501 1503 1504 1505 1506 1508 1511 1514 1513 1515 1514 1513 1515 1516 1518 1522 1523 1527
1494 1495 1494 1494 1496 1498 1500 1500 1502 1505 1506 1507 1507 1508 1507 1507 1507 1505 1503 1500 1500 1499 1498 1497 1497 1497 1499 1502 1504 1502 1504 1509 1510 1511 1512 1509 1510 1512 1514 1515 1519 1520 1524
1489 1489 1489 1487 1489 1492 1497 1497 1500 1503 1504 1504 1504 1504 1503 1503 1503 1502 1501 1500 1497 1496 1496 1497 1496 1496 1498 1499 1499 1500 1503 1505 1506 1507 1509 1506 1508 1509 1511 1513 1515 1518 1521
1481 1481 1483 1482 1482 1485 1491 1493 1497 1499 1500 1500 1500 1498 1498 1499 1498 1497 1497 1496 1495 1495 1494 1494 1494 1494 1494 1495 1496 1497 1497 1500 1502 1503 1504 1502 1504 1505 1507 1509 1513 1516 1518
1471 1474 1475 1475 1475 1478 1483 1488 1492 1493 1494 1496 1495 1495 1495 1496 1495 1495 1493 1492 1491 1492 1491 1491 1491 1491 1490 1491 1493 1494 1494 1496 1499 1499 1501 1499 1500 1502 1504 1507 1511 1513 1516
1464 1465 1468 1467 1469 1471 1475 1480 1485 1488 1490 1490 1491 1491 1490 1491 1491 1491 1490 1488 1488 1488 1487 1487 1487 1488 1488 1489 1489 1490 1491 1494 1496 1497 1498 1500 1498 1500 1502 1505 1508 1511 1514
1458 1457 1458 1458 1461 1464 1468 1473 1480 1484 1486 1487 1486 1486 1486 1486 1486 1485 1485 1485 1484 1482 1482 1482 1483 1484 1485 1486 1485 1486 1488 1490 1490 1492 1494 1495 1497 1497 1500 1502 1505 1508 1511
1450 1449 1448 1451 1454 1457 1461 1467 1473 1478 1481 1483 1481 1482 1481 1481 1480 1480 1479 1479 1478 1478 1478 1479 1479 1481 1482 1483 1482 1482 1484 1485 1487 1489 1490 1492 1495 1497 1497 1500 1502 1505 1509
1442 1441 1441 1445 1449 1452 1458 1460 1467 1471 1476 1478 1477 1479 1478 1477 1476 1475 1475 1475 1474 1474 1475 1475 1477 1478 1478 1478 1478 1479 1481 1484 1486 1488 1489 1490 1492 1495 1498 1498 1500 1503 1506
1433 1433 1437 1442 1446 1450 1454 1459 1466 1469 1473 1474 1474 1475 1474 1473 1472 1471 1470 1470 1470 1470 1471 1472 1473 1474 1474 1475 1476 1477 1480 1482 1485 1486 1487 1489 1488 1491 1494 1495 1496 1499 1502
1426 1428 1432 1438 1442 1447 1452 1458 1463 1467 1471 1471 1471 1470 1469 1469 1467 1466 1466 1466 1466 1466 1467 1468 1469 1469 1470 1471 1473 1475 1477 1479 1481 1483 1485 1484 1486 1488 1491 1493 1495 1497 1500
1423 1425 1429 1434 1439 1446 1452 1458 1463 1466 1468 1468 1468 1467 1465 1464 1463 1462 1462 1462 1462 1462 1463 1465 1465 1467 1468 1468 1470 1473 1475 1478 1478 1480 1482 1482 1484 1487 1490 1491 1492 1495 1498
1421 1423 1428 1433 1439 1446 1451 1455 1458 1461 1463 1464 1464 1464 1462 1461 1460 1459 1458 1458 1458 1460 1462 1462 1462 1464 1464 1465 1467 1470 1472 1469 1475 1477 1479 1480 1483 1486 1488 1490 1492 1493 1494
1420 1423 1428 1433 1439 1445 1450 1455 1457 1461 1462 1462 1461 1461 1460 1458 1456 1455 1455 1456 1458 1458 1458 1459 1460 1461 1462 1464 1466 1468 1469 1469 1471 1475 1477 1479 1481 1483 1486 1488 1492 1493 1495
1420 1424 1428 1434 1440 1444 1449 1454 1456 1458 1459 1459 1459 1457 1456 1455 1453 1453 1454 1455 1456 1455 1456 1457 1459 1459 1461 1463 1465 1466 1468 1469 1470 1471 1474 1477 1480 1482 1484 1487 1490 1493 1496
1422 1426 1431 1435 1440 1445 1449 1452 1455 1456 1456 1457 1457 1456 1454 1451 1451 1453 1454 1453 1454 1454 1455 1456 1458 1460 1460 1462 1464 1466 1466 1469 1470 1470 1472 1476 1478 1481 1484 1486 1489 1492 1496
Wind_Speed
15 11 16 16 14 12 11 9 8 6 4 4 5 6 6 7 9 10 11 12 12 11 11 10 8 10 11 12 13 15 16 15 15 15 13 14 14 12 11 9 10 10 10
12 10 14 16 15 13 13 11 10 7 5 4 5 6 7 8 8 10 11 12 12 12 11 11 11 9 10 11 12 13 15 17 17 16 16 14 15 16 14 13 11 14 11
14 12 11 15 15 14 13 10 11 9 6 5 5 6 7 8 9 10 10 10 11 11 13 12 12 12 10 11 12 13 14 16 18 18 17 12 12 17 18 15 14 16 15
13 12 12 14 15 16 13 12 10 10 6 5 6 7 8 9 10 11 10 10 10 11 12 14 14 12 11 10 11 12 13 16 17 19 15 11 12 14 19 18 16 17 17
14 12 13 15 16 16 14 12 11 10 7 5 6 7 9 10 11 11 11 12 13 12 12 12 13 12 11 12 11 11 12 14 16 15 12 15 12 15 17 20 19 18 19
15 14 13 16 17 17 15 13 12 11 8 7 7 8 10 10 11 11 13 14 16 16 14 14 13 13 13 14 14 13 11 13 13 12 13 15 19 15 19 18 20 20 20
16 17 15 18 19 18 18 16 15 13 12 11 10 10 11 11 10 12 15 17 17 18 18 18 17 19 18 16 17 16 15 13 13 13 14 15 13 22 20 20 18 18 20
16 19 18 19 20 20 20 20 20 19 17 14 13 12 12 12 11 15 18 18 19 22 22 22 21 20 20 19 19 19 17 17 14 14 15 15 16 22 21 22 21 20 21
18 21 19 20 22 22 22 25 24 21 19 17 16 14 14 14 14 17 19 20 20 19 20 21 22 23 22 22 21 19 19 20 16 15 16 15 18 19 21 22 20 20 20
21 21 23 23 23 23 26 28 26 23 21 19 18 17 16 16 17 18 19 19 19 19 20 20 22 23 24 24 24 23 21 21 18 16 17 16 21 21 21 22 21 20 21
22 23 23 21 22 24 24 24 27 25 22 22 21 19 18 15 14 15 17 20 22 22 21 20 19 19 21 25 26 25 24 18 18 19 17 19 25 20 21 21 21 22 20
22 24 25 25 24 22 21 21 23 24 22 20 16 15 15 14 15 16 18 23 21 22 20 20 19 17 14 13 16 19 21 19 20 20 18 21 23 19 22 21 21 22 22
20 24 26 31 31 26 21 19 18 18 16 16 17 16 15 14 14 14 14 14 14 16 13 13 13 13 13 16 13 18 17 20 20 20 20 25 21 19 21 22 21 21 23
21 23 27 29 34 32 22 21 19 18 16 15 14 17 17 15 14 14 13 14 14 13 15 12 12 12 13 16 16 17 18 18 19 22 19 25 20 19 20 22 22 20 22
23 21 27 30 33 34 32 21 21 20 18 16 15 15 17 15 14 14 14 14 15 15 14 13 13 13 12 12 15 17 16 16 18 21 15 20 19 19 20 22 22 20 20
22 19 24 31 32 34 33 30 27 26 19 20 13 13 18 16 14 15 15 14 15 16 15 13 13 12 13 13 15 16 15 17 19 20 14 14 16 19 19 22 20 20 20
22 21 26 30 31 34 32 31 28 24 23 14 12 17 17 18 16 18 16 16 16 18 19 17 14 12 12 14 14 14 15 18 18 15 14 11 11 16 19 21 19 20 21
23 23 26 24 28 34 34 30 28 22 20 14 13 13 16 18 18 19 19 19 18 17 20 16 13 13 13 13 16 13 13 14 12 13 11 11 11 12 13 19 18 19 21
22 23 25 21 26 32 31 31 27 24 18 13 13 12 14 15 17 19 20 17 18 18 18 16 13 14 13 16 15 12 12 11 9 10 11 11 13 13 13 15 17 18 23
22 20 17 19 25 29 27 25 20 15 14 12 11 12 13 14 17 19 19 18 17 17 16 14 13 13 13 12 12 12 10 10 10 10 11 12 12 12 13 11 12 17 21
15 13 15 21 26 26 22 20 15 13 12 10 11 12 13 14 17 18 19 17 17 16 16 13 14 14 14 14 12 12 10 10 10 10 11 12 11 11 11 10 11 15 20
9 12 17 21 24 24 20 15 12 11 10 9 9 12 11 12 14 16 15 16 15 16 17 16 15 13 14 14 13 11 9 8 10 11 10 10 10 10 10 11 15 18 12
11 14 18 21 24 23 17 15 12 9 8 7 8 7 7 8 10 12 13 13 12 12 15 15 15 13 13 13 13 8 7 9 13 10 12 11 11 11 11 13 15 14 15
13 17 19 23 26 22 17 11 10 8 7 8 7 8 7 8 10 9 8 9 10 13 13 12 9 10 12 11 11 10 7 4 13 9 11 11 12 13 13 13 16 18 21
18 21 23 25 22 18 16 10 7 6 6 5 5 7 8 8 7 5 7 9 11 10 9 8 9 11 11 10 10 10 10 8 8 10 11 12 12 12 11 12 17 20 21
22 22 22 22 18 15 12 10 7 5 5 4 6 8 8 10 6 7 7 8 7 6 7 7 8 9 7 8 10 8 8 9 10 8 12 15 13 11 8 11 15 19 23
Wind_Direction
181 193 196 202 200 198 197 202 207 212 241 269 280 276 273 266 256 254 256 259 267 268 266 270 259 257 260 253 247 239 234 238 242 231 221 217 214 206 201 200 198 171 203
176 178 187 199 200 201 201 207 207 216 227 261 282 285 283 275 264 255 252 255 260 269 272 268 266 252 254 258 251 245 239 234 238 239 235 226 222 220 213 213 205 202 210
181 185 173 192 198 202 203 203 205 215 229 262 283 287 286 284 276 267 259 253 258 271 276 269 264 264 250 248 254 251 248 240 235 237 235 230 235 221 221 215 210 207 215
182 181 181 185 192 200 201 202 206 218 234 273 291 300 298 293 284 273 262 245 255 268 271 276 270 264 267 257 250 254 251 252 244 238 235 241 243 234 222 222 217 215 214
188 185 186 188 190 199 201 205 212 220 239 269 286 302 305 294 286 274 273 260 273 281 276 269 266 269 270 270 267 255 258 258 254 244 241 239 238 243 229 226 224 219 215
196 192 195 194 193 198 200 204 207 215 231 258 285 300 305 296 282 265 273 274 276 275 275 275 264 260 261 262 275 270 260 261 259 251 242 241 233 231 232 226 224 220 217
199 199 206 202 200 205 208 211 216 223 234 249 266 286 302 300 283 273 275 272 273 270 270 265 261 253 254 254 258 257 262 260 254 250 240 241 233 234 226 222 221 221 217
208 210 211 211 207 212 217 221 226 229 234 247 257 273 292 299 284 274 272 269 270 271 267 264 259 256 248 251 250 250 252 259 255 254 242 240 236 233 222 224 225 225 220
219 218 220 220 214 217 223 229 233 236 239 248 258 268 281 289 276 271 275 278 275 273 275 267 255 256 248 256 252 249 251 252 245 242 249 246 251 238 221 223 223 223 223
226 223 222 224 221 221 224 228 234 240 243 250 262 268 275 282 276 273 274 284 277 279 282 272 257 250 251 253 252 249 248 248 245 241 246 241 242 238 223 222 223 225 222
238 229 221 222 218 221 222 229 232 237 242 250 258 263 269 266 266 273 274 268 275 284 283 276 265 257 251 248 251 251 246 245 245 250 236 245 250 235 223 219 222 225 222
250 238 225 221 218 216 213 214 232 233 239 244 247 254 265 258 259 258 262 276 277 279 275 277 272 259 249 248 252 262 244 238 239 236 238 245 249 233 225 219 220 225 223
265 245 233 230 226 218 215 213 217 221 228 235 242 252 263 257 262 269 276 280 287 287 281 280 278 274 254 252 249 230 232 232 232 235 236 247 245 232 228 221 221 228 225
269 249 232 226 227 225 212 217 218 217 224 234 247 267 267 262 262 265 263 268 269 269 265 268 264 259 250 249 245 247 222 219 229 230 233 251 236 230 227 223 224 228 226
266 252 229 225 230 226 224 216 216 220 231 237 249 262 262 253 255 258 262 259 259 257 254 256 260 260 259 255 245 240 230 223 224 229 230 254 233 231 227 223 227 229 225
270 255 228 226 229 224 227 224 230 234 231 245 244 247 262 256 255 254 258 262 259 253 251 247 253 251 259 253 242 235 225 225 221 227 227 244 238 230 231 224 226 229 224
269 263 237 235 226 224 224 227 228 233 235 234 239 256 260 262 257 255 256 259 259 259 253 244 249 254 252 252 244 231 218 218 218 223 231 233 247 245 232 226 225 227 224
265 259 248 236 221 221 217 220 222 224 235 231 241 247 263 267 263 260 259 264 270 266 257 239 238 242 244 244 242 224 213 218 214 228 229 226 232 229 250 228 227 224 217
265 253 251 230 211 213 215 215 213 224 228 232 245 249 258 260 257 261 261 263 257 263 247 235 233 235 246 239 238 222 212 213 212 223 219 228 228 215 218 234 228 224 212
257 249 233 213 205 203 203 202 205 214 222 233 241 252 258 263 258 260 260 254 266 255 238 234 233 237 240 232 225 209 203 206 221 213 217 223 219 209 213 218 225 220 211
240 222 203 194 194 186 186 190 198 211 224 233 243 256 262 265 265 259 252 259 260 242 243 237 234 240 238 219 202 197 201 205 204 210 211 217 206 200 200 203 205 201 203
208 187 183 183 186 184 185 181 193 205 223 230 244 254 260 258 258 247 254 257 253 235 232 233 236 233 230 210 195 185 184 189 197 203 204 205 199 190 186 191 196 197 183
179 177 172 173 177 179 177 187 199 207 224 248 262 265 255 257 258 258 257 256 243 217 229 234 237 228 221 207 196 185 187 194 181 198 196 196 193 182 183 192 189 190 178
162 159 162 167 176 183 185 182 185 206 230 236 236 242 248 250 260 261 254 227 206 222 231 234 227 216 205 196 192 208 223 178 184 178 186 187 188 183 188 188 186 184 183
150 150 155 163 171 182 182 173 183 206 230 230 239 247 254 253 258 235 207 197 213 223 221 196 200 187 211 190 196 190 191 184 195 189 163 170 167 162 177 181 177 185 182
146 147 154 164 168 174 175 178 180 200 208 229 256 263 263 266 233 192 196 204 211 200 197 182 188 199 201 197 205 202 182 189 197 183 163 158 155 158 155 170 180 190 190